Torna al catalogo

FENGYUN 1C DEB

LostSSO
NORAD 32220·DEBRIS·🇨🇳 China

Lanciato May 10, 1999 da Taiyuan Satellite Launch Center

Loading…

Prossimi Passaggi (prossime 24 ore)

TLE

ObsoletoSource: Space-Track

Epoca: Nov 17, 2014, 00:57 UTC

1 32220U 99025CVS 14321.03979087  .00001588  00000-0  10801-2 0  9992
2 32220  99.2673 257.6674 0228324  31.3800 330.0753 13.89663064369803

Traccia FENGYUN 1C DEB in tempo reale con AllMySat

Download on the App Store